Find Starlink 31758

NORAD ID: 59621 Int'l Des: 2024-080 Owner: SPXS Country: US Constellation: starlink operational
LEOCIRCULAR

現在のビュー

3D地球を読み込み中...

Starlink 31758について

説明を読み込み中...

次回通過

Passes for default location (London). Set your location on the main map for personalized predictions.

高度履歴

Loading altitude history...

軌道要素

1 59621U 24080W 26158.96677215 -.00001262 00000-0 -36372-4 0 9990
2 59621 43.0008 244.2417 0000781 250.1297 109.9470 15.27567993118381
Epoch: Jun 7, 2026 • Age: 24 hours

現在のステータス

高度 483.4 km
速度 7.63 km/s
衛星直下点 25.02°N, 27.56°E
打ち上げ日 Apr 28, 2024
運用期間 2.1 years
タイプ internet

技術仕様

分類 Payload
質量 730.00 kg
乾燥質量 700.00 kg
総質量 730.00 kg
長さ 0.30 m
直径 4.10 m
スパン 29.00 m
形状 Box + pan
製造者 SPXS
バスタイプ Starlink V2M
フェーズステータス In Orbit
所有者/国 SPXS/US

Most Searched